FW2670 Weather Reports


Display with metric or nautical units.
time (UTC)temp
F
wind
direction
speed
MPH
gust
MPH
rain 1hr
in
rain 24hr
in
rain mn
in
humidity
%
barometer
mb
20260504024037 58 213 1.0 4.0 0.00 0.00 0.00 58 1012.7
20260504023529 58 180 2.0 4.0 0.00 0.00 0.00 58 1012.7
20260504023118 58 184 0.0 7.0 0.00 0.00 0.00 58 1013.0
20260504023035 58 146 1.0 7.0 0.00 0.00 0.00 58 1012.7
20260504022523 58 165 1.0 7.0 0.00 0.00 0.00 58 1012.7
20260504022048 59 195 1.0 6.0 0.00 0.00 0.00 57 1012.8
20260504021556 58 184 1.0 5.0 0.00 0.00 0.00 57 1013.2
20260504021534 59 187 1.0 4.0 0.00 0.00 0.00 57 1013.0
20260504021055 59 192 1.0 3.0 0.00 0.00 0.00 56 1013.0
20260504020527 59 182 0.0 4.0 0.00 0.00 0.00 57 1012.9
20260504020116 59 182 0.0 4.0 0.00 0.00 0.00 56 1012.9
20260504015537 59 181 0.0 0.0 0.00 0.00 0.00 56 1012.9
20260504015040 59 181 0.0 5.0 0.00 0.00 0.00 55 1012.8
20260504014615 59 181 1.0 5.0 0.00 0.00 0.00 55 1013.2
20260504014551 59 180 1.0 5.0 0.00 0.00 0.00 55 1013.0
20260504014036 60 186 1.0 4.0 0.00 0.00 0.00 55 1012.9
20260504013548 60 186 1.0 4.0 0.00 0.00 0.00 54 1013.0
20260504013119 59 190 0.0 3.0 0.00 0.00 0.00 54 1013.1
20260504013027 60 190 1.0 3.0 0.00 0.00 0.00 54 1012.9
20260504012536 60 191 1.0 2.0 0.00 0.00 0.00 53 1012.8
20260504012042 60 190 0.0 4.0 0.00 0.00 0.00 53 1012.9
20260504011530 61 192 1.0 4.0 0.00 0.00 0.00 53 1013.1
20260504011504 60 192 0.0 3.0 0.00 0.00 0.00 53 1013.4
20260504011057 61 192 0.0 3.0 0.00 0.00 0.00 53 1013.2
20260504010548 61 192 0.0 3.0 0.00 0.00 0.00 52 1013.3
20260504010009 61 193 0.0 1.0 0.00 0.00 0.00 51 1013.5
20260504005532 61 193 0.0 1.0 0.00 0.00 0.00 51 1013.2
20260504005039 62 193 0.0 2.0 0.00 0.00 0.00 50 1013.2
20260504004618 61 193 0.0 6.0 0.00 0.00 0.00 50 1013.6
20260504004531 62 193 1.0 6.0 0.00 0.00 0.00 50 1013.3
20260504004031 62 189 1.0 8.0 0.00 0.00 0.00 50 1013.2
20260504003542 62 185 4.0 8.0 0.00 0.00 0.00 49 1013.4
20260504003057 62 192 3.0 7.0 0.00 0.00 0.00 49 1013.4
20260504003006 62 194 2.0 7.0 0.00 0.00 0.00 49 1013.7
20260504002546 62 200 2.0 9.0 0.00 0.00 0.00 49 1013.4
20260504002025 62 192 4.0 9.0 0.00 0.00 0.00 49 1013.5
20260504001535 62 196 5.0 9.0 0.00 0.00 0.00 48 1013.5
20260504001512 62 196 5.0 9.0 0.00 0.00 0.00 48 1013.8
20260504001041 63 203 1.0 5.0 0.00 0.00 0.00 49 1013.5
20260504000533 63 211 0.0 3.0 0.00 0.00 0.00 49 1013.4
20260504000148 62 211 1.0 8.0 0.00 0.00 0.00 48 1013.6
20260504000120 63 211 1.0 8.0 0.00 0.00 0.00 48 1013.3
20260503235548 63 206 4.0 8.0 0.00 0.00 0.00 47 1013.3
20260503235037 63 180 5.0 13.0 0.00 0.00 0.00 47 1013.2
20260503234550 63 192 5.0 13.0 0.00 0.00 0.00 46 1013.2
20260503234507 63 211 4.0 13.0 0.00 0.00 0.00 46 1013.5
20260503234045 64 199 4.0 13.0 0.00 0.00 0.00 46 1013.1
20260503233556 64 211 5.0 19.0 0.00 0.00 0.00 46 1013.0
20260503233116 63 190 8.0 19.0 0.00 0.00 0.00 46 1013.1
20260503233037 64 205 7.0 19.0 0.00 0.00 0.00 46 1012.9
20260503232528 64 159 3.0 13.0 0.00 0.00 0.00 46 1012.8
20260503232059 64 199 7.0 15.0 0.00 0.00 0.00 46 1012.8
20260503231558 64 200 4.0 15.0 0.00 0.00 0.00 46 1013.2
20260503231531 64 211 4.0 15.0 0.00 0.00 0.00 46 1012.9
20260503231036 64 205 4.0 14.0 0.00 0.00 0.00 46 1012.8
20260503230547 64 194 5.0 13.0 0.00 0.00 0.00 45 1012.9
20260503230141 64 194 4.0 16.0 0.00 0.00 0.00 45 1013.3
20260503230058 64 203 5.0 16.0 0.00 0.00 0.00 45 1013.0
20260503225550 65 163 5.0 12.0 0.00 0.00 0.00 44 1013.1
20260503225028 65 193 4.0 12.0 0.00 0.00 0.00 45 1013.0
20260503224654 64 182 5.0 18.0 0.00 0.00 0.00 45 1013.4
20260503224537 65 209 3.0 18.0 0.00 0.00 0.00 45 1013.1
20260503224041 64 224 7.0 18.0 0.00 0.00 0.00 45 1013.2
20260503223554 64 198 3.0 13.0 0.00 0.00 0.00 46 1013.1
20260503223124 63 222 5.0 15.0 0.00 0.00 0.00 45 1013.5
20260503223054 64 181 6.0 15.0 0.00 0.00 0.00 45 1013.2
20260503222608 64 191 6.0 16.0 0.00 0.00 0.00 45 1013.2
20260503222025 64 191 5.0 14.0 0.00 0.00 0.00 46 1013.3
20260503221603 63 209 4.0 21.0 0.00 0.00 0.00 44 1013.6
20260503221536 64 217 4.0 21.0 0.00 0.00 0.00 45 1013.3
20260503221042 64 189 10.0 21.0 0.00 0.00 0.00 44 1013.5
20260503220535 64 232 7.0 19.0 0.00 0.00 0.00 45 1013.4
20260503220146 63 186 9.0 19.0 0.00 0.00 0.00 44 1013.9
20260503220052 64 215 10.0 19.0 0.00 0.00 0.00 44 1013.5
20260503215535 64 184 6.0 13.0 0.00 0.00 0.00 44 1013.5
20260503215040 64 190 5.0 16.0 0.00 0.00 0.00 44 1013.7
20260503214634 64 207 4.0 16.0 0.00 0.00 0.00 45 1014.2
20260503214549 64 173 6.0 16.0 0.00 0.00 0.00 45 1013.9
20260503214044 64 195 6.0 14.0 0.00 0.00 0.00 44 1014.1
20260503213535 64 211 4.0 15.0 0.00 0.00 0.00 44 1014.2
20260503213115 64 211 7.0 15.0 0.00 0.00 0.00 43 1014.7
20260503213041 64 232 7.0 15.0 0.00 0.00 0.00 43 1014.3
20260503212534 64 188 3.0 16.0 0.00 0.00 0.00 44 1014.2
20260503212039 64 205 6.0 16.0 0.00 0.00 0.00 42 1014.2
20260503211611 64 186 5.0 18.0 0.00 0.00 0.00 43 1014.8
20260503211546 64 202 5.0 18.0 0.00 0.00 0.00 42 1014.4
20260503211042 64 151 9.0 18.0 0.00 0.00 0.00 42 1014.6
20260503210552 64 210 3.0 15.0 0.00 0.00 0.00 43 1014.8
20260503210149 63 214 7.0 18.0 0.00 0.00 0.00 42 1015.3
20260503210059 64 217 8.0 18.0 0.00 0.00 0.00 41 1015.1
20260503205528 64 207 9.0 18.0 0.00 0.00 0.00 41 1015.4
20260503205034 64 206 6.0 13.0 0.00 0.00 0.00 43 1015.4
20260503204639 63 180 6.0 11.0 0.00 0.00 0.00 44 1015.7
20260503204548 64 113 6.0 11.0 0.00 0.00 0.00 44 1015.3
20260503204040 64 209 6.0 11.0 0.00 0.00 0.00 42 1015.6
20260503203552 64 192 5.0 10.0 0.00 0.00 0.00 42 1015.5
20260503203119 63 174 5.0 14.0 0.00 0.00 0.00 43 1016.1
20260503203029 64 200 6.0 14.0 0.00 0.00 0.00 43 1015.6
20260503202536 64 211 5.0 15.0 0.00 0.00 0.00 43 1015.5
20260503202039 63 149 7.0 22.0 0.00 0.00 0.00 44 1015.3
20260503201546 63 212 11.0 21.0 0.00 0.00 0.00 43 1016.1
20260503201529 63 218 12.0 21.0 0.00 0.00 0.00 43 1015.7
20260503201033 63 222 7.0 17.0 0.00 0.00 0.00 43 1015.8
20260503200541 63 189 3.0 15.0 0.00 0.00 0.00 43 1015.7
20260503200144 63 183 3.0 15.0 0.00 0.00 0.00 44 1016.0
20260503200100 63 322 4.0 15.0 0.00 0.00 0.00 44 1015.7
20260503195548 63 210 4.0 20.0 0.00 0.00 0.00 44 1015.8
20260503195043 63 219 9.0 20.0 0.00 0.00 0.00 42 1016.2
20260503194611 63 250 6.0 19.0 0.00 0.00 0.00 42 1016.5
20260503194534 63 209 6.0 19.0 0.00 0.00 0.00 41 1016.2
20260503194040 63 192 9.0 19.0 0.00 0.00 0.00 40 1016.2
20260503193532 63 246 6.0 15.0 0.00 0.00 0.00 43 1016.4
20260503193119 63 191 8.0 15.0 0.00 0.00 0.00 41 1016.7
20260503193107 63 203 7.0 15.0 0.00 0.00 0.00 42 1016.3
20260503192531 63 275 6.0 16.0 0.00 0.00 0.00 45 1016.3
20260503192033 62 190 6.0 16.0 0.00 0.00 0.00 42 1016.5
20260503191559 62 201 6.0 19.0 0.00 0.00 0.00 41 1017.1
20260503191547 63 196 6.0 19.0 0.00 0.00 0.00 41 1016.7
20260503191042 63 192 8.0 19.0 0.00 0.00 0.00 42 1016.7
20260503190552 62 221 4.0 11.0 0.00 0.00 0.00 41 1016.8
20260503190143 62 169 3.0 16.0 0.00 0.00 0.00 42 1017.2
20260503190105 62 209 3.0 16.0 0.00 0.00 0.00 43 1016.9
20260503185530 62 157 5.0 17.0 0.00 0.00 0.00 42 1017.1
20260503185036 63 211 8.0 17.0 0.00 0.00 0.00 42 1017.2
20260503184640 62 174 2.0 10.0 0.00 0.00 0.00 42 1017.5
20260503184525 63 222 4.0 10.0 0.00 0.00 0.00 43 1017.2
20260503184028 62 235 3.0 12.0 0.00 0.00 0.00 44 1017.4
20260503183612 62 207 6.0 17.0 0.00 0.00 0.00 40 1017.6
20260503183104 61 200 4.0 17.0 0.00 0.00 0.00 44 1018.0
20260503183029 62 180 4.0 17.0 0.00 0.00 0.00 43 1017.6
20260503182538 62 196 6.0 16.0 0.00 0.00 0.00 43 1017.8
20260503182036 62 194 7.0 16.0 0.00 0.00 0.00 41 1017.9
20260503181605 62 207 7.0 14.0 0.00 0.00 0.00 42 1018.5
20260503181527 62 216 7.0 15.0 0.00 0.00 0.00 43 1018.1
20260503181029 62 192 3.0 12.0 0.00 0.00 0.00 44 1018.1
20260503180551 61 188 6.0 16.0 0.00 0.00 0.00 45 1018.2
20260503180134 61 180 6.0 16.0 0.00 0.00 0.00 43 1018.7
20260503180103 61 150 8.0 16.0 0.00 0.00 0.00 43 1018.2
20260503175551 61 47 5.0 17.0 0.00 0.00 0.00 44 1018.4
20260503175027 61 225 5.0 17.0 0.00 0.00 0.00 44 1018.6
20260503174616 60 188 9.0 16.0 0.00 0.00 0.00 42 1019.0
20260503174535 61 142 9.0 16.0 0.00 0.00 0.00 43 1018.6
20260503174041 61 176 8.0 20.0 0.00 0.00 0.00 43 1018.6
20260503173552 61 183 6.0 20.0 0.00 0.00 0.00 43 1018.6
20260503173114 60 196 5.0 18.0 0.00 0.00 0.00 44 1019.0
20260503173027 61 46 6.0 18.0 0.00 0.00 0.00 43 1018.6
20260503172535 60 202 3.0 18.0 0.00 0.00 0.00 45 1018.6
20260503172038 60 207 9.0 20.0 0.00 0.00 0.00 43 1018.8
20260503171605 59 157 5.0 20.0 0.00 0.00 0.00 43 1019.3
20260503171547 60 199 6.0 20.0 0.00 0.00 0.00 44 1018.9
20260503171038 60 202 8.0 18.0 0.00 0.00 0.00 46 1018.9
20260503170526 60 127 5.0 11.0 0.00 0.00 0.00 42 1018.9
20260503170106 60 149 4.0 11.0 0.00 0.00 0.00 45 1019.1
20260503160135 58 225 6.0 14.0 0.00 0.00 0.00 43 1020.5
20260503150532 55 183 2.0 15.0 0.00 0.00 0.00 50 1020.5
20260503140150 51 205 4.0 10.0 0.00 0.00 0.00 54 1021.1
20260503140117 52 241 6.0 10.0 0.00 0.00 0.00 54 1020.5
20260503131027 46 209 0.0 4.0 0.00 0.00 0.00 73 1020.8
20260503130609 45 211 2.0 4.0 0.00 0.00 0.00 78 1020.8
20260503130133 43 142 0.0 3.0 0.00 0.00 0.00 83 1021.4
20260503120131 34 303 0.0 0.0 0.00 0.00 0.00 94 1021.3
20260503110527 32 303 0.0 0.0 0.00 0.00 0.00 93 1020.1
20260503110123 31 303 0.0 0.0 0.00 0.00 0.00 93 1020.6
20260503110104 32 303 0.0 0.0 0.00 0.00 0.00 93 1020.1
20260503100150 31 303 0.0 0.0 0.00 0.00 0.00 92 1020.5
20260503090105 32 303 0.0 0.0 0.00 0.00 0.00 92 1020.1
20260503081555 32 303 0.0 0.0 0.00 0.00 0.00 92 1020.5
20260503081530 32 303 0.0 0.0 0.00 0.00 0.00 92 1019.9
20260503081035 32 303 0.0 0.0 0.00 0.00 0.00 91 1019.9
20260503080547 32 303 0.0 0.0 0.00 0.00 0.00 91 1019.9
20260503080137 32 303 0.0 0.0 0.00 0.00 0.00 91 1020.4
20260503072526 33 303 0.0 0.0 0.00 0.00 0.00 91 1019.7
20260503072059 33 303 0.0 0.0 0.00 0.00 0.00 91 1019.8
20260503071611 33 303 0.0 0.0 0.00 0.00 0.00 91 1020.3
20260503071550 33 303 0.0 0.0 0.00 0.00 0.00 91 1019.8
20260503071037 33 303 0.0 0.0 0.00 0.00 0.00 91 1019.8
20260503070529 33 303 0.0 0.0 0.00 0.00 0.00 91 1019.9
20260503070131 33 303 0.0 0.0 0.00 0.00 0.00 91 1020.4
20260503060141 34 303 0.0 0.0 0.00 0.00 0.00 90 1020.6
20260503055102 35 303 0.0 0.0 0.00 0.00 0.00 90 1020.2
20260503054627 34 303 0.0 0.0 0.00 0.00 0.00 90 1020.7
20260503054532 35 303 0.0 0.0 0.00 0.00 0.00 90 1020.2
20260503054038 35 303 0.0 0.0 0.00 0.00 0.00 89 1020.2
20260503053529 35 303 0.0 0.0 0.00 0.00 0.00 89 1020.2
20260503053112 35 303 0.0 0.0 0.00 0.00 0.00 89 1020.7
20260503053033 35 303 0.0 0.0 0.00 0.00 0.00 89 1020.2
20260503052540 35 303 0.0 0.0 0.00 0.00 0.00 89 1020.2
20260503052024 35 303 0.0 0.0 0.00 0.00 0.00 89 1020.3
20260503051557 35 303 0.0 0.0 0.00 0.00 0.00 89 1020.4
20260503051512 35 303 0.0 0.0 0.00 0.00 0.00 89 1020.8
20260503051039 36 303 0.0 0.0 0.00 0.00 0.00 89 1020.4
20260503050550 36 303 0.0 0.0 0.00 0.00 0.00 88 1020.4
20260503050126 35 303 0.0 0.0 0.00 0.00 0.00 88 1020.7
20260503050101 36 303 0.0 0.0 0.00 0.00 0.00 88 1020.3
20260503045531 36 303 0.0 0.0 0.00 0.00 0.00 88 1020.4
20260503045032 36 303 0.0 0.0 0.00 0.00 0.00 88 1020.3
20260503044559 36 303 0.0 0.0 0.00 0.00 0.00 88 1020.7
20260503044545 36 303 0.0 0.0 0.00 0.00 0.00 88 1020.2
20260503044051 36 303 0.0 0.0 0.00 0.00 0.00 87 1020.3
20260503043535 36 303 0.0 0.0 0.00 0.00 0.00 87 1020.3
20260503043042 36 303 0.0 0.0 0.00 0.00 0.00 87 1020.2
20260503043025 36 303 0.0 0.0 0.00 0.00 0.00 87 1020.6
20260503042532 37 303 0.0 0.0 0.00 0.00 0.00 86 1020.2
20260503042038 37 303 0.0 0.0 0.00 0.00 0.00 86 1020.2
20260503041551 36 303 0.0 0.0 0.00 0.00 0.00 86 1020.6
20260503041530 37 303 0.0 0.0 0.00 0.00 0.00 86 1020.1
20260503041057 37 303 0.0 0.0 0.00 0.00 0.00 85 1020.1
20260503040526 37 303 0.0 0.0 0.00 0.00 0.00 85 1020.1
20260503040129 37 303 0.0 0.0 0.00 0.00 0.00 85 1020.5
20260503040114 37 303 0.0 0.0 0.00 0.00 0.00 85 1020.1
20260503035553 38 303 0.0 0.0 0.00 0.00 0.00 85 1020.0
20260503035037 38 303 0.0 0.0 0.00 0.00 0.00 85 1020.1
20260503034543 37 303 0.0 0.0 0.00 0.00 0.00 84 1020.5
20260503034528 38 303 0.0 0.0 0.00 0.00 0.00 84 1020.1
20260503034050 38 303 0.0 0.0 0.00 0.00 0.00 84 1020.1
20260503033553 38 303 0.0 0.0 0.00 0.00 0.00 83 1020.1
20260503033113 38 303 0.0 0.0 0.00 0.00 0.00 83 1020.5
20260503033039 38 303 0.0 0.0 0.00 0.00 0.00 83 1020.1
20260503032549 39 303 0.0 0.0 0.00 0.00 0.00 83 1020.1
20260503032059 39 303 0.0 0.0 0.00 0.00 0.00 83 1020.0
20260503031550 39 303 0.0 0.0 0.00 0.00 0.00 82 1020.1
20260503031516 39 303 0.0 0.0 0.00 0.00 0.00 82 1020.5
20260503031045 39 303 0.0 0.0 0.00 0.00 0.00 81 1020.1
20260503030609 39 303 0.0 0.0 0.00 0.00 0.00 81 1020.1
20260503030010 39 303 0.0 0.0 0.00 0.00 0.00 80 1020.5
20260503025532 40 303 0.0 0.0 0.00 0.00 0.00 79 1020.1
20260503025039 40 303 0.0 0.0 0.00 0.00 0.00 79 1020.1
20260503024549 40 303 0.0 0.0 0.00 0.00 0.00 79 1020.1
20260503024508 40 303 0.0 0.0 0.00 0.00 0.00 79 1020.5